Regional Weather Roundup
Issued by NWS Columbia, SC

Home | Current Version | Previous Version | Text Only | Print | Product List | Glossary On
Versions: 1 2 3 4 5 6 7 8 9 10 11 12 13 14 15 16 17 18 19 20 21 22 23 24 25 26 27 28 29 30 31 32 33 34 35 36 37 38 39 40 41 42 43 44 45 46 47
000
ASUS42 KCAE 040510
RWRCAE
REGIONAL WEATHER ROUNDUP
NATIONAL WEATHER SERVICE COLUMBIA SC
100 AM EDT MON MAY 04 2015

NOTE: "FAIR" INDICATES FEW OR NO CLOUDS BELOW 12,000 FEET WITH NO
SIGNIFICANT WEATHER AND/OR OBSTRUCTIONS TO VISIBILITY.

NOT ALL STATIONS ARE QUALITY CONTROLLED BY THE NATIONAL
WEATHER SERVICE. USE DATA WITH CAUTION...ESPECIALLY
DEWPOINT OBSERVATIONS.

SCZ001>056-GAZ040-063>065-077-040600-
...UPSTATE SOUTH CAROLINA...

CITY           SKY/WX    TMP DP  RH WIND       PRES   REMARKS
ANDERSON       CLEAR     58  53  84 CALM      30.21R
LIBERTY        CLEAR     54  53  96 N3        30.21R
SPARTANBURG    MOCLDY    59  55  88 CALM      30.21R
CLEMSON        PTCLDY    65  52  62 CALM      30.22R
GREENVILLE     CLOUDY    66  49  54 SW3       30.22R
GREENWOOD      CLEAR     60  53  77 CALM      30.22S
GREER          CLOUDY    64  52  64 S3        30.20R
ROCK HILL      CLEAR     59  50  72 S5        30.23R
LAURENS        CLEAR     59  57  94 S3        30.21R


...CENTRAL SOUTH CAROLINA...

CITY           SKY/WX    TMP DP  RH WIND       PRES   REMARKS
COLUMBIA APT   PTCLDY    65  52  62 CALM      30.22R
COLUMBIA OWENS PTCLDY    65  53  65 CALM      30.23R
DARLINGTON     CLEAR     61  54  77 S5        30.25S
FLORENCE       CLEAR     61  57  87 S5        30.24R
MCENTIRE ANGB  CLOUDY    63  55  76 E2        30.23R
ORANGEBURG     CLEAR     62  53  72 CALM      30.24R
SUMTER SHAW    PTCLDY    62  54  75 S3        30.22S
NEWBERRY       CLEAR     59  52  77 S5        30.24S
AIKEN          FAIR      61  48  63 S7        30.25S
BARNWELL       FAIR      63  54  72 CALM      30.23S
MANNING        FAIR      59  54  82 CALM      30.24S
CAMDEN         FAIR      63  54  72 CALM      30.24R
LANCASTER      CLEAR     61  55  82 S5        30.23S
WINNSBORO      CLEAR     61  52  72 SE7       30.22S


...EASTERN AND COASTAL SOUTH CAROLINA...

CITY           SKY/WX    TMP DP  RH WIND       PRES   REMARKS
MYRTLE BEACH   CLEAR     70  57  64 S8        30.27S
N MYRTLE BCH   CLEAR     67  59  75 S6        30.24S
CONWAY         FAIR      55  55 100 CALM      30.25S FOG
MARION         FAIR      61  59  94 S3        30.25S
HARTSVILLE     FAIR      61  54  77 CALM      30.25R
FLORENCE       CLEAR     61  57  87 S5        30.24R
DARLINGTON     CLEAR     61  54  77 S5        30.25S
CHARLESTON APT PTCLDY    64  59  83 SE3       30.25R
MOUNT PLEASANT FAIR      61  61 100 MISG      30.25R
WALTERBORO     PTCLDY    59  55  88 CALM      30.24F
BEAUFORT       CLEAR     63  60  90 CALM      30.24R


...EASTERN GEORGIA...

CITY           SKY/WX    TMP DP  RH WIND       PRES   REMARKS
AUGUSTA BUSH F CLEAR     61  51  70 S3        30.21S
AUGUSTA DANIEL CLEAR     68  49  50 S7        30.22S
THOMSON          N/A     61  58  92 CALM      30.26R VSB 1
WASHINGTON     FAIR      61  59  94 CALM      30.20S
CLAXTON        FAIR      55  54  94 CALM      30.23S
SYLVANIA       CLEAR     59  53  82 CALM      30.24S
STATESBORO       N/A     56  54  92 CALM      30.23S
SAVANNAH       CLEAR     62  55  77 CALM      30.23S


...SOUTHERN NORTH CAROLINA...

CITY           SKY/WX    TMP DP  RH WIND       PRES   REMARKS
CHARLOTTE      CLEAR     61  48  62 S7        30.22R
MONROE         CLEAR     63  50  62 VRB6      30.22R
WADESBORO      CLEAR     61  51  70 S5        30.23S
ROCKINGHAM     CLEAR     62  55  77 S5        30.24R
RUTHERFORDTON  PTCLDY    55  51  84 CALM      30.23R
ASHEVILLE      CLOUDY    59  48  67 CALM      30.25R

$$


USA.gov is the U.S. government's official web portal to all federal, state and local government web resources and services.